Weather History for Sparta, IL

Change the Weather History Date:

Monday, October 8, 2012

  Actual Average (KBLV) Record (KBLV)
Temperature  
Mean Temperature 46 °F -  
Max Temperature 60 °F 72 °F 92 °F (1980)
Min Temperature 33 °F 46 °F 25 °F (1987)
Degree Days  
Heating Degree Days 18    
Moisture  
Dew Point 34 °F    
Average Humidity 65    
Maximum Humidity 100    
Minimum Humidity 20    
Precipitation  
Precipitation 0.00 in - - ()
Sea Level Pressure  
Sea Level Pressure 30.17 in    
Wind  
Wind Speed 3 mph (South)    
Max Wind Speed 12 mph    
Max Gust Speed 16 mph    
Visibility 10 miles    
Events      
Averages and records for this station are not official NWS values.
T = Trace of Precipitation, MM = Missing Value Source: NWS Daily Summary

Daily Weather History Graph

Daily Weather History Graph

Search for Another Location

Airport:

Trip Planner

Search our weather history database for the weather conditions in past years. The results will help you decide how hot, cold, wet, or windy it might be!

Date:

Astronomy

Oct. 08, 2012 Rise Set
Actual Time 7:01 AM CDT 6:30 PM CDT
Civil Twilight 6:34 AM CDT 6:56 PM CDT
Nautical Twilight 6:04 AM CDT 7:27 PM CDT
Astronomical Twilight 5:33 AM CDT 7:57 PM CDT
Moon No Moon Rise 2:14 PM CDT (10/8)
Length of Visible Light 12h 21m
Length of Day
11h 29m
Last Quarter, 46% of the Moon is Illuminated
Oct 8
Last Quarter
Oct 15
New
Oct 21
First Quarter
Oct 29
Full
Nov 6
Last Quarter

Hourly Weather History & Observations

Time (CDT) Temp. Windchill Dew Point Humidity Pressure Visibility Wind Dir Wind Speed Gust Speed Precip Events Conditions
12:15 AM 39.2 °F - 39.2 °F 100% 30.20 in 2.0 mi Calm Calm - N/A   Clear
12:35 AM 41.0 °F - 41.0 °F 100% 30.20 in 10.0 mi Calm Calm - N/A   Clear
12:55 AM 39.2 °F - 39.2 °F 100% 30.20 in 10.0 mi Calm Calm - N/A   Clear
1:15 AM 39.2 °F - 39.2 °F 100% 30.20 in 10.0 mi Calm Calm - N/A   Clear
1:35 AM 39.2 °F - 39.2 °F 100% 30.20 in 10.0 mi Calm Calm - N/A   Clear
1:55 AM 39.2 °F - 39.2 °F 100% 30.20 in 10.0 mi Calm Calm - N/A   Clear
2:15 AM 39.2 °F - 39.2 °F 100% 30.21 in 10.0 mi Calm Calm - N/A   Clear
2:35 AM 39.2 °F - 39.2 °F 100% 30.21 in 10.0 mi Calm Calm - N/A   Clear
2:55 AM 39.2 °F - 39.2 °F 100% 30.20 in 10.0 mi Calm Calm - N/A   Clear
3:15 AM 39.2 °F - 39.2 °F 100% 30.20 in 10.0 mi Calm Calm - N/A   Clear
3:35 AM 37.4 °F - 37.4 °F 100% 30.20 in 10.0 mi Calm Calm - N/A   Clear
3:55 AM 37.4 °F - 37.4 °F 100% 30.20 in 10.0 mi Calm Calm - N/A   Clear
4:15 AM 37.4 °F - 37.4 °F 100% 30.21 in 10.0 mi Calm Calm - N/A   Clear
4:35 AM 37.4 °F - 37.4 °F 100% 30.21 in 10.0 mi Calm Calm - N/A   Clear
4:55 AM 37.4 °F - 37.4 °F 100% 30.21 in 10.0 mi Calm Calm - N/A   Clear
5:15 AM 35.6 °F - 35.6 °F 100% 30.21 in 10.0 mi Calm Calm - N/A   Clear
5:35 AM 35.6 °F - 35.6 °F 100% 30.22 in 10.0 mi Calm Calm - N/A   Clear
5:55 AM 35.6 °F - 35.6 °F 100% 30.22 in 10.0 mi Calm Calm - N/A   Clear
6:15 AM 35.6 °F - 35.6 °F 100% 30.22 in 10.0 mi Calm Calm - N/A   Clear
6:35 AM 35.6 °F - 35.6 °F 100% 30.22 in 10.0 mi Calm Calm - N/A   Clear
6:55 AM 33.8 °F - 33.8 °F 100% 30.22 in 10.0 mi Calm Calm - N/A   Clear
7:15 AM 33.8 °F - 33.8 °F 100% 30.23 in 10.0 mi Calm Calm - N/A   Clear
7:35 AM 35.6 °F - 35.6 °F 100% 30.23 in 10.0 mi Calm Calm - N/A   Clear
7:55 AM 41.0 °F 38.0 °F 41.0 °F 100% 30.23 in 10.0 mi South 4.6 mph - N/A   Clear
8:15 AM 44.6 °F 41.4 °F 41.0 °F 87% 30.24 in 10.0 mi South 5.8 mph - N/A   Clear
8:35 AM 46.4 °F 43.5 °F 41.0 °F 81% 30.24 in 10.0 mi SSW 5.8 mph - N/A   Clear
8:55 AM 48.2 °F - 39.2 °F 71% 30.24 in 10.0 mi SSW 8.1 mph - N/A   Clear
9:15 AM 48.2 °F - 39.2 °F 71% 30.24 in 10.0 mi SSW 9.2 mph - N/A   Clear
9:35 AM 50.0 °F - 39.2 °F 66% 30.24 in 10.0 mi SSW 8.1 mph - N/A   Clear
9:55 AM 51.8 °F - 39.2 °F 62% 30.23 in 10.0 mi SSW 6.9 mph - N/A   Clear
10:15 AM 53.6 °F - 37.4 °F 54% 30.23 in 10.0 mi South 6.9 mph - N/A   Clear
10:35 AM 53.6 °F - 33.8 °F 47% 30.23 in 10.0 mi SSW 8.1 mph - N/A   Clear
10:55 AM 55.4 °F - 32.0 °F 41% 30.23 in 10.0 mi SW 8.1 mph - N/A   Clear
11:15 AM 55.4 °F - 30.2 °F 38% 30.22 in 10.0 mi SW 6.9 mph - N/A   Clear
11:35 AM 55.4 °F - 28.4 °F 36% 30.22 in 10.0 mi SW 6.9 mph - N/A   Clear
11:55 AM 55.4 °F - 28.4 °F 36% 30.21 in 10.0 mi SW 6.9 mph - N/A   Clear
12:15 PM 55.4 °F - 24.8 °F 31% 30.21 in 10.0 mi SSW 4.6 mph - N/A   Clear
12:35 PM 57.2 °F - 26.6 °F 31% 30.20 in 10.0 mi SW 5.8 mph - N/A   Clear
12:55 PM 57.2 °F - 24.8 °F 29% 30.19 in 10.0 mi South 4.6 mph - N/A   Clear
1:15 PM 59.0 °F - 26.6 °F 29% 30.18 in 10.0 mi South 5.8 mph - N/A   Clear
1:35 PM 57.2 °F - 21.2 °F 25% 30.17 in 10.0 mi Calm Calm - N/A   Clear
1:55 PM 59.0 °F - 21.2 °F 23% 30.15 in 10.0 mi SSW 6.9 mph - N/A   Clear
2:15 PM 59.0 °F - 19.4 °F 22% 30.15 in 10.0 mi WSW 6.9 mph - N/A   Clear
2:35 PM 60.8 °F - 21.2 °F 22% 30.14 in 10.0 mi SSW 11.5 mph 16.1 mph N/A   Clear
2:55 PM 60.8 °F - 21.2 °F 22% 30.13 in 10.0 mi South 9.2 mph - N/A   Clear
3:15 PM 60.8 °F - 21.2 °F 22% 30.13 in 10.0 mi South 8.1 mph - N/A   Clear
3:35 PM 60.8 °F - 24.8 °F 25% 30.12 in 10.0 mi South 8.1 mph - N/A   Clear
3:55 PM 60.8 °F - 21.2 °F 22% 30.11 in 10.0 mi SSE 9.2 mph - N/A   Clear
4:15 PM 60.8 °F - 19.4 °F 20% 30.11 in 10.0 mi SSW 6.9 mph - N/A   Clear
4:35 PM 60.8 °F - 19.4 °F 20% 30.10 in 10.0 mi South 8.1 mph - N/A   Clear
4:55 PM 59.0 °F - 21.2 °F 23% 30.10 in 10.0 mi South 9.2 mph - N/A   Clear
5:15 PM 59.0 °F - 21.2 °F 23% 30.10 in 10.0 mi South 8.1 mph - N/A   Clear
5:35 PM 57.2 °F - 24.8 °F 29% 30.10 in 10.0 mi South 4.6 mph - N/A   Clear
5:55 PM 57.2 °F - 26.6 °F 31% 30.10 in 10.0 mi South 8.1 mph - N/A   Clear
6:15 PM 55.4 °F - 28.4 °F 36% 30.10 in 10.0 mi South 4.6 mph - N/A   Clear
6:35 PM 55.4 °F - 32.0 °F 41% 30.10 in 10.0 mi South 4.6 mph - N/A   Clear
6:55 PM 53.6 °F - 33.8 °F 47% 30.10 in 10.0 mi SSE 3.5 mph - N/A   Clear
7:15 PM 51.8 °F - 37.4 °F 58% 30.09 in 10.0 mi SSE 4.6 mph - N/A   Clear
7:35 PM 51.8 °F - 37.4 °F 58% 30.10 in 10.0 mi SSE 3.5 mph - N/A   Clear
7:55 PM 50.0 °F - 37.4 °F 62% 30.10 in 10.0 mi SSE 4.6 mph - N/A   Clear
8:15 PM 50.0 °F - 39.2 °F 66% 30.10 in 10.0 mi SSE 4.6 mph - N/A   Clear
8:35 PM 48.2 °F - 39.2 °F 71% 30.10 in 10.0 mi SSE 3.5 mph - N/A   Clear
8:55 PM 50.0 °F - 39.2 °F 66% 30.11 in 10.0 mi SSE 3.5 mph - N/A   Clear
9:15 PM 48.2 °F - 39.2 °F 71% 30.12 in 10.0 mi South 4.6 mph - N/A   Clear
9:35 PM 48.2 °F - 39.2 °F 71% 30.12 in 10.0 mi South 4.6 mph - N/A   Clear
9:55 PM 48.2 °F - 39.2 °F 71% 30.12 in 10.0 mi South 5.8 mph - N/A   Clear
10:15 PM 48.2 °F - 39.2 °F 71% 30.12 in 10.0 mi South 5.8 mph - N/A   Clear
10:35 PM 48.2 °F - 39.2 °F 71% 30.11 in 10.0 mi South 5.8 mph - N/A   Clear
10:55 PM 48.2 °F - 41.0 °F 76% 30.11 in 10.0 mi South 5.8 mph - N/A   Clear
11:15 PM 48.2 °F - 41.0 °F 76% 30.11 in 10.0 mi South 5.8 mph - N/A   Clear
11:35 PM 48.2 °F - 41.0 °F 76% 30.11 in 10.0 mi South 4.6 mph - N/A   Clear
11:55 PM 48.2 °F - 41.0 °F 76% 30.10 in 10.0 mi South 5.8 mph - N/A   Clear